Weather History for KGGW - December, 2013

Change the Weather History Date:

Saturday, December 28, 2013

  Actual Average Record
Temperature  
Mean Temperature 20 °F 14 °F  
Max Temperature 41 °F 23 °F 55 °F (1999)
Min Temperature -1 °F 4 °F -31 °F (1968)
Degree Days  
Heating Degree Days 45 51  
Month to date heating degree days 1604 1355  
Since 1 July heating degree days 3515 3348  
Cooling Degree Days 0 0  
Month to date cooling degree days 0 0  
Year to date cooling degree days 563 533  
Moisture  
Dew Point 2 °F    
Average Humidity 73    
Maximum Humidity 82    
Minimum Humidity 64    
Precipitation  
Precipitation 0.01 in 0.02 in 0.30 in (1917)
Month to date precipitation 0.67 0.36  
Year to date precipitation 15.68 11.62  
Snow  
Snow 0.40 in 0.30 in 5.00 in (1917)
Month to date snowfall 11.2 7.1  
Since 1 July snowfall 14.9 13.7  
Snow Depth 3.00 in    
Sea Level Pressure  
Sea Level Pressure 30.33 in    
Wind  
Wind Speed 16 mph (NNW)    
Max Wind Speed 40 mph    
Max Gust Speed 50 mph    
Visibility 7 miles    
Events Fog , Snow    
T = Trace of Precipitation, MM = Missing Value Source: NWS Daily Summary

Daily Weather History Graph

Daily Weather History Graph

Search for Another Location

Airport or City:

Trip Planner

Search our weather history database for the weather conditions in past years. The results will help you decide how hot, cold, wet, or windy it might be!

Date:

Astronomy

Dec. 28, 2013 Rise Set
Actual Time 7:56 AM MST 4:19 PM MST
Civil Twilight 7:20 AM MST 4:56 PM MST
Nautical Twilight 6:40 AM MST 5:36 PM MST
Astronomical Twilight 6:02 AM MST 6:13 PM MST
Moon 3:26 AM MST 1:21 PM MST
Length of Visible Light 9h 35m
Length of Day
8h 22m
Waning Crescent, 18% of the Moon is Illuminated
Dec 28
Waning Crescent
Jan 1
New
Jan 7
First Quarter
Jan 15
Full
Jan 23
Last Quarter

Hourly Weather History & Observations

Time (MST) Temp. Windchill Dew Point Humidity Pressure Visibility Wind Dir Wind Speed Gust Speed Precip Events Conditions
12:53 AM 37.0 °F 29.8 °F 28.0 °F 70% 29.74 in 10.0 mi West 10.4 mph - N/A   Scattered Clouds
1:53 AM 39.9 °F 31.1 °F 28.0 °F 63% 29.76 in 10.0 mi WNW 17.3 mph 29.9 mph N/A   Scattered Clouds
2:53 AM 39.9 °F 30.2 °F 30.9 °F 70% 29.79 in 10.0 mi WNW 20.7 mph 28.8 mph N/A   Scattered Clouds
3:34 AM 37.0 °F 25.9 °F 30.9 °F 79% 29.78 in 10.0 mi West 23.0 mph 40.3 mph N/A   Mostly Cloudy
3:53 AM 35.1 °F 21.4 °F 30.0 °F 82% 29.87 in 10.0 mi WNW 32.2 mph 41.4 mph N/A   Overcast
4:27 AM 28.0 °F 10.5 °F 24.1 °F 85% 29.86 in 10.0 mi NW 39.1 mph 47.2 mph N/A   Overcast
4:53 AM 18.0 °F -2.3 °F 12.9 °F 81% 30.03 in 10.0 mi NW 33.4 mph 42.6 mph N/A   Overcast
5:15 AM 12.9 °F -9.5 °F 8.1 °F 81% 29.99 in 3.0 mi NW 34.5 mph 47.2 mph 0.00 in Snow Light Snow
5:28 AM 12.0 °F -9.8 °F 7.0 °F 80% 30.02 in 2.0 mi NNW 31.1 mph 42.6 mph 0.00 in Snow Light Snow
5:46 AM 10.0 °F -14.3 °F 3.9 °F 76% 30.06 in 6.0 mi NNW 38.0 mph 47.2 mph 0.00 in   Overcast
5:53 AM 9.0 °F -15.2 °F 3.0 °F 77% 30.19 in 10.0 mi NNW 35.7 mph 47.2 mph 0.00 in   Overcast
6:20 AM 7.0 °F -18.0 °F -0.0 °F 73% 30.11 in 10.0 mi NNW 35.7 mph 49.5 mph 0.00 in   Mostly Cloudy
6:53 AM 6.1 °F -17.6 °F -0.9 °F 73% 30.30 in 10.0 mi NNW 29.9 mph 42.6 mph 0.00 in   Overcast
7:53 AM 3.9 °F -19.8 °F -2.9 °F 73% 30.40 in 10.0 mi NNW 27.6 mph 39.1 mph 0.00 in   Overcast
8:27 AM 3.0 °F -20.6 °F -2.9 °F 76% 30.30 in 1.5 mi NNW 26.5 mph - 0.00 in Snow Light Snow
8:30 AM 3.0 °F -20.2 °F -2.0 °F 80% 30.30 in 0.8 mi NNW 25.3 mph - 0.00 in Snow Light Snow
8:37 AM 1.9 °F -20.7 °F -2.0 °F 83% 30.31 in 0.2 mi NNW 23.0 mph 34.5 mph 0.00 in Fog , Snow Snow
8:51 AM 1.4 °F -23.2 °F -4.0 °F 78% 30.32 in 0.8 mi NNW 27.6 mph 39.1 mph 0.00 in Snow Light Snow
8:53 AM 1.9 °F -21.6 °F -4.0 °F 76% 30.45 in 0.8 mi NNW 25.3 mph 39.1 mph 0.00 in Snow Light Snow
9:00 AM 1.9 °F -22.4 °F -4.0 °F 76% 30.33 in 1.0 mi NNW 27.6 mph 36.8 mph 0.00 in Snow Light Snow
9:16 AM 1.9 °F -21.6 °F -4.0 °F 76% 30.34 in 1.2 mi NNW 25.3 mph - 0.00 in Snow Light Snow
9:21 AM 1.9 °F -21.6 °F -4.0 °F 76% 30.34 in 0.8 mi NNW 25.3 mph - 0.00 in Snow Light Snow
9:53 AM 1.9 °F -21.6 °F -4.0 °F 76% 30.50 in 1.0 mi NNW 25.3 mph 32.2 mph 0.00 in Snow Light Snow
10:21 AM 1.0 °F -21.9 °F -4.0 °F 79% 30.38 in 0.5 mi NNW 23.0 mph - 0.00 in Snow Snow
10:33 AM 1.0 °F -24.0 °F -4.0 °F 79% 30.39 in 0.5 mi NNW 28.8 mph 34.5 mph 0.00 in Snow Snow
10:38 AM 1.0 °F -23.6 °F -5.1 °F 75% 30.39 in 1.5 mi NNW 27.6 mph - 0.00 in Snow Light Snow
10:41 AM 1.9 °F -22.4 °F -5.1 °F 72% 30.39 in 4.0 mi NNW 27.6 mph - 0.00 in Snow Blowing Snow
10:53 AM 1.0 °F -23.2 °F -6.0 °F 72% 30.54 in 10.0 mi NNW 26.5 mph 35.7 mph 0.00 in   Overcast
11:53 AM 1.9 °F -21.2 °F -6.0 °F 69% 30.53 in 10.0 mi NNW 24.2 mph - N/A   Overcast
12:53 PM 1.9 °F -19.2 °F -6.0 °F 69% 30.55 in 10.0 mi North 19.6 mph - N/A   Overcast
1:53 PM 3.9 °F -13.0 °F -5.1 °F 66% 30.56 in 10.0 mi NNW 12.7 mph - N/A   Partly Cloudy
2:53 PM 1.9 °F -14.7 °F -6.0 °F 69% 30.58 in 10.0 mi NW 11.5 mph - N/A   Clear
3:53 PM 1.9 °F -7.6 °F -6.0 °F 69% 30.60 in 10.0 mi North 4.6 mph - N/A   Mostly Cloudy
4:53 PM 1.9 °F -11.8 °F -5.1 °F 72% 30.63 in 10.0 mi North 8.1 mph - N/A   Partly Cloudy
5:53 PM 1.0 °F -8.7 °F -5.1 °F 75% 30.65 in 10.0 mi North 4.6 mph - N/A   Scattered Clouds
6:53 PM 1.9 °F - -5.1 °F 72% 30.66 in 10.0 mi Calm Calm - N/A   Scattered Clouds
7:53 PM 1.9 °F -5.6 °F -5.1 °F 72% 30.65 in 10.0 mi South 3.5 mph - N/A   Overcast
8:53 PM 1.0 °F -8.7 °F -5.1 °F 75% 30.62 in 10.0 mi South 4.6 mph - 0.00 in   Mostly Cloudy
9:53 PM 1.0 °F - -5.1 °F 75% 30.63 in 10.0 mi Calm Calm - N/A   Overcast
10:53 PM -0.0 °F - -5.1 °F 79% 30.63 in 10.0 mi Calm Calm - N/A   Overcast
11:53 PM -0.0 °F -7.9 °F -5.1 °F 79% 30.63 in 10.0 mi NE 3.5 mph - N/A   Overcast